| time (UTC) | temp F | wind direction | speed MPH | gust MPH | rain 1hr in | rain 24hr in | rain mn in | humidity % | barometer mb |
| 20260510191558 | 80 | 260 | 1.0 | 6.0 | 0.00 | 0.00 | 0.00 | 29 | 1010.9 |
| 20260510190058 | 81 | 240 | 1.0 | 5.0 | 0.00 | 0.00 | 0.00 | 26 | 1010.9 |
| 20260510184554 | 83 | 112 | 2.0 | 5.0 | 0.00 | 0.00 | 0.00 | 24 | 1010.9 |
| 20260510183058 | 81 | 104 | 2.0 | 9.0 | 0.00 | 0.00 | 0.00 | 27 | 1010.9 |
| 20260510181617 | 81 | 205 | 0.0 | 7.0 | 0.00 | 0.00 | 0.00 | 28 | 1011.1 |
| 20260510180057 | 81 | 256 | 0.0 | 5.0 | 0.00 | 0.00 | 0.00 | 28 | 1011.2 |
| 20260510174555 | 81 | 274 | 2.0 | 9.0 | 0.00 | 0.00 | 0.00 | 26 | 1011.4 |
| 20260510173040 | 81 | 277 | 3.0 | 5.0 | 0.00 | 0.00 | 0.00 | 28 | 1011.5 |
| 20260510171538 | 80 | 188 | 0.0 | 3.0 | 0.00 | 0.00 | 0.00 | 28 | 1011.7 |
| 20260510170036 | 82 | 8 | 2.0 | 7.0 | 0.00 | 0.00 | 0.00 | 28 | 1011.8 |
| 20260510164540 | 81 | 285 | 1.0 | 7.0 | 0.00 | 0.00 | 0.00 | 29 | 1011.7 |
| 20260510163029 | 80 | 276 | 0.0 | 4.0 | 0.00 | 0.00 | 0.00 | 31 | 1011.8 |
| 20260510161526 | 80 | 312 | 0.0 | 5.0 | 0.00 | 0.00 | 0.00 | 31 | 1012.1 |
| 20260510160033 | 80 | 252 | 1.0 | 9.0 | 0.00 | 0.00 | 0.00 | 32 | 1012.2 |
| 20260510154520 | 79 | 356 | 0.0 | 6.0 | 0.00 | 0.00 | 0.00 | 34 | 1012.3 |
| 20260510153017 | 79 | 231 | 1.0 | 7.0 | 0.00 | 0.00 | 0.00 | 32 | 1012.3 |
| 20260510151512 | 78 | 180 | 1.0 | 4.0 | 0.00 | 0.00 | 0.00 | 33 | 1012.2 |
| 20260510150008 | 77 | 119 | 0.0 | 4.0 | 0.00 | 0.00 | 0.00 | 35 | 1012.2 |
| 20260510144503 | 74 | 236 | 0.0 | 3.0 | 0.00 | 0.00 | 0.00 | 38 | 1012.2 |
| 20260510143110 | 73 | 230 | 0.0 | 0.0 | 0.00 | 0.00 | 0.00 | 40 | 1012.0 |
| 20260510141554 | 71 | 179 | 0.0 | 0.0 | 0.00 | 0.00 | 0.00 | 42 | 1012.0 |
| 20260510140048 | 69 | 283 | 0.0 | 0.0 | 0.00 | 0.00 | 0.00 | 33 | 1011.9 |
| 20260510134544 | 67 | 149 | 0.0 | 0.0 | 0.00 | 0.00 | 0.00 | 35 | 1012.0 |
| 20260510133038 | 66 | 245 | 0.0 | 0.0 | 0.00 | 0.00 | 0.00 | 37 | 1012.0 |
| 20260510131538 | 65 | 250 | 0.0 | 0.0 | 0.00 | 0.00 | 0.00 | 37 | 1012.1 |
| 20260510130134 | 66 | 214 | 0.0 | 0.0 | 0.00 | 0.00 | 0.00 | 35 | 1012.0 |
| 20260510124532 | 65 | 124 | 1.0 | 3.0 | 0.00 | 0.00 | 0.00 | 39 | 1012.0 |
| 20260510123025 | 64 | 118 | 0.0 | 1.0 | 0.00 | 0.00 | 0.00 | 39 | 1012.1 |
| 20260510121520 | 61 | 44 | 0.0 | 4.0 | 0.00 | 0.00 | 0.00 | 44 | 1012.1 |
| 20260510120015 | 59 | 321 | 0.0 | 0.0 | 0.00 | 0.00 | 0.00 | 48 | 1011.8 |
| 20260510114511 | 57 | 321 | 0.0 | 0.0 | 0.00 | 0.00 | 0.00 | 46 | 1011.7 |
| 20260510113006 | 56 | 321 | 0.0 | 0.0 | 0.00 | 0.00 | 0.00 | 49 | 1011.5 |
| 20260510111503 | 53 | 321 | 0.0 | 0.0 | 0.00 | 0.00 | 0.00 | 49 | 1011.1 |
| 20260510110059 | 52 | 321 | 0.0 | 0.0 | 0.00 | 0.00 | 0.00 | 49 | 1011.0 |
| 20260510104556 | 50 | 266 | 0.0 | 1.0 | 0.00 | 0.00 | 0.00 | 49 | 1010.7 |
| 20260510103053 | 50 | 245 | 0.0 | 0.0 | 0.00 | 0.00 | 0.00 | 50 | 1010.7 |
| 20260510101552 | 49 | 245 | 0.0 | 1.0 | 0.00 | 0.00 | 0.00 | 50 | 1010.3 |
| 20260510100110 | 49 | 245 | 0.0 | 1.0 | 0.00 | 0.00 | 0.00 | 49 | 1010.2 |
| 20260510094555 | 49 | 245 | 0.0 | 1.0 | 0.00 | 0.00 | 0.00 | 49 | 1010.3 |
| 20260510093048 | 49 | 245 | 0.0 | 2.0 | 0.00 | 0.00 | 0.00 | 48 | 1010.3 |
| 20260510091540 | 50 | 13 | 0.0 | 0.0 | 0.00 | 0.00 | 0.00 | 49 | 1010.1 |
| 20260510090038 | 51 | 13 | 0.0 | 2.0 | 0.00 | 0.00 | 0.00 | 49 | 1010.1 |
| 20260510084536 | 51 | 356 | 0.0 | 4.0 | 0.00 | 0.00 | 0.00 | 49 | 1010.1 |
| 20260510083038 | 50 | 10 | 1.0 | 2.0 | 0.00 | 0.00 | 0.00 | 49 | 1010.0 |
| 20260510081530 | 50 | 288 | 0.0 | 0.0 | 0.00 | 0.00 | 0.00 | 48 | 1009.9 |
| 20260510080027 | 51 | 288 | 0.0 | 0.0 | 0.00 | 0.00 | 0.00 | 48 | 1009.7 |
| 20260510074523 | 51 | 288 | 0.0 | 1.0 | 0.00 | 0.00 | 0.00 | 47 | 1009.6 |
| 20260510073022 | 51 | 269 | 0.0 | 0.0 | 0.00 | 0.00 | 0.00 | 45 | 1009.6 |
| 20260510071532 | 51 | 277 | 0.0 | 0.0 | 0.00 | 0.00 | 0.00 | 42 | 1009.5 |
| 20260510070014 | 51 | 310 | 0.0 | 0.0 | 0.00 | 0.00 | 0.00 | 42 | 1009.2 |
| 20260510064511 | 52 | 310 | 0.0 | 0.0 | 0.00 | 0.00 | 0.00 | 42 | 1009.0 |
| 20260510063007 | 52 | 236 | 0.0 | 0.0 | 0.00 | 0.00 | 0.00 | 46 | 1008.9 |
| 20260510061502 | 53 | 6 | 0.0 | 0.0 | 0.00 | 0.00 | 0.00 | 48 | 1008.8 |
| 20260510060100 | 53 | 6 | 0.0 | 0.0 | 0.00 | 0.00 | 0.00 | 50 | 1008.8 |
| 20260510054556 | 54 | 6 | 0.0 | 1.0 | 0.00 | 0.00 | 0.00 | 53 | 1008.8 |
| 20260510053054 | 54 | 6 | 0.0 | 1.0 | 0.00 | 0.00 | 0.00 | 54 | 1008.9 |
| 20260510051550 | 55 | 230 | 0.0 | 0.0 | 0.00 | 0.00 | 0.00 | 53 | 1009.0 |
| 20260510050046 | 56 | 230 | 0.0 | 0.0 | 0.00 | 0.00 | 0.00 | 52 | 1009.0 |
| 20260510044546 | 56 | 287 | 0.0 | 0.0 | 0.00 | 0.00 | 0.00 | 53 | 1009.0 |
| 20260510043042 | 56 | 334 | 0.0 | 2.0 | 0.00 | 0.00 | 0.00 | 54 | 1008.8 |
| 20260510041537 | 56 | 148 | 0.0 | 0.0 | 0.00 | 0.00 | 0.00 | 55 | 1008.8 |
| 20260510040036 | 56 | 148 | 0.0 | 0.0 | 0.00 | 0.00 | 0.00 | 57 | 1008.6 |
| 20260510034539 | 56 | 148 | 0.0 | 0.0 | 0.00 | 0.00 | 0.00 | 59 | 1008.7 |
| 20260510033031 | 57 | 148 | 0.0 | 0.0 | 0.00 | 0.00 | 0.00 | 59 | 1008.6 |
| 20260510031539 | 58 | 148 | 0.0 | 0.0 | 0.00 | 0.00 | 0.00 | 59 | 1008.4 |
| 20260510030026 | 58 | 148 | 0.0 | 0.0 | 0.00 | 0.00 | 0.00 | 60 | 1008.6 |
| 20260510024536 | 59 | 148 | 0.0 | 0.0 | 0.00 | 0.00 | 0.00 | 61 | 1008.4 |
| 20260510023023 | 59 | 148 | 0.0 | 0.0 | 0.00 | 0.00 | 0.00 | 59 | 1008.4 |
| 20260510021523 | 60 | 148 | 0.0 | 0.0 | 0.00 | 0.00 | 0.00 | 59 | 1008.2 |
| 20260510020018 | 61 | 148 | 0.0 | 0.0 | 0.00 | 0.00 | 0.00 | 57 | 1008.0 |
| 20260510014518 | 62 | 148 | 0.0 | 0.0 | 0.00 | 0.00 | 0.00 | 56 | 1007.8 |
| 20260510013014 | 62 | 148 | 0.0 | 0.0 | 0.00 | 0.00 | 0.00 | 55 | 1007.6 |
| 20260510011512 | 63 | 148 | 0.0 | 0.0 | 0.00 | 0.00 | 0.00 | 53 | 1007.3 |
| 20260510010009 | 65 | 148 | 0.0 | 0.0 | 0.00 | 0.00 | 0.00 | 50 | 1007.1 |
| 20260510004508 | 66 | 148 | 0.0 | 0.0 | 0.00 | 0.00 | 0.00 | 48 | 1006.8 |
| 20260510003016 | 67 | 148 | 0.0 | 0.0 | 0.00 | 0.00 | 0.00 | 49 | 1006.7 |
| 20260510001504 | 68 | 153 | 0.0 | 0.0 | 0.00 | 0.00 | 0.00 | 45 | 1006.7 |
| 20260510000108 | 68 | 153 | 0.0 | 0.0 | 0.00 | 0.00 | 0.00 | 43 | 1006.6 |
| 20260509234615 | 69 | 153 | 0.0 | 0.0 | 0.00 | 0.00 | 0.00 | 42 | 1006.5 |
| 20260509233058 | 71 | 153 | 0.0 | 0.0 | 0.00 | 0.00 | 0.00 | 41 | 1006.4 |
| 20260509231556 | 72 | 153 | 0.0 | 0.0 | 0.00 | 0.00 | 0.00 | 39 | 1006.2 |
| 20260509230100 | 73 | 145 | 0.0 | 1.0 | 0.00 | 0.00 | 0.00 | 35 | 1006.4 |
| 20260509224553 | 74 | 264 | 0.0 | 0.0 | 0.00 | 0.00 | 0.00 | 37 | 1006.3 |
| 20260509223051 | 75 | 264 | 0.0 | 0.0 | 0.00 | 0.00 | 0.00 | 34 | 1006.4 |
| 20260509221548 | 73 | 264 | 0.0 | 0.0 | 0.00 | 0.00 | 0.00 | 36 | 1006.4 |
| 20260509220047 | 73 | 264 | 0.0 | 2.0 | 0.00 | 0.00 | 0.00 | 35 | 1006.4 |
| 20260509214545 | 73 | 258 | 0.0 | 3.0 | 0.00 | 0.00 | 0.00 | 36 | 1006.5 |
| 20260509213044 | 73 | 285 | 0.0 | 3.0 | 0.00 | 0.00 | 0.00 | 35 | 1006.4 |
| 20260509211540 | 74 | 290 | 3.0 | 8.0 | 0.00 | 0.00 | 0.00 | 33 | 1006.2 |
| 20260509210044 | 74 | 231 | 3.0 | 9.0 | 0.00 | 0.00 | 0.00 | 33 | 1006.3 |
| 20260509204536 | 75 | 250 | 2.0 | 10.0 | 0.00 | 0.00 | 0.00 | 32 | 1006.1 |
| 20260509203037 | 76 | 263 | 2.0 | 6.0 | 0.00 | 0.00 | 0.00 | 33 | 1006.2 |
| 20260509201525 | 75 | 271 | 4.0 | 13.0 | 0.00 | 0.00 | 0.00 | 35 | 1006.2 |
| 20260509200025 | 74 | 241 | 2.0 | 8.0 | 0.00 | 0.00 | 0.00 | 35 | 1006.2 |
| 20260509194523 | 74 | 155 | 4.0 | 9.0 | 0.00 | 0.00 | 0.00 | 36 | 1006.4 |
| 20260509193014 | 72 | 232 | 4.0 | 11.0 | 0.00 | 0.00 | 0.00 | 37 | 1006.9 |